Time,TemperatureF,DewpointF,PressureIn,WindDirection,WindDirectionDegrees,WindSpeedMPH,WindSpeedGustMPH,Humidity,HourlyPrecipIn,Conditions,Clouds,dailyrainin,SoftwareType,DateUTC
2013-03-14 00:01:00,23.5,19.1,30.25,SW,224,2.0,5.0,83,0.00,,CLR,0.00,VWS V14.01,2013-03-14 05:01:00,
2013-03-14 00:07:00,23.5,19.1,30.25,SSW,198,3.0,5.0,83,0.00,,SCT090,0.00,VWS V14.01,2013-03-14 05:07:00,
2013-03-14 00:13:00,23.5,19.1,30.25,SW,226,3.0,7.0,83,0.00,,SCT090,0.00,VWS V14.01,2013-03-14 05:13:00,
2013-03-14 00:19:00,23.5,19.1,30.25,South,183,3.0,8.0,83,0.00,,SCT090,0.00,VWS V14.01,2013-03-14 05:19:00,
2013-03-14 00:25:00,23.5,19.1,30.25,South,191,4.0,6.0,83,0.00,,SCT090,0.00,VWS V14.01,2013-03-14 05:25:00,
2013-03-14 00:30:00,23.5,19.1,30.24,SSW,205,2.0,6.0,83,0.00,,SCT090,0.00,VWS V14.01,2013-03-14 05:30:00,
2013-03-14 00:35:00,23.5,19.1,30.24,South,180,3.0,4.0,83,0.00,,BKN080,0.00,VWS V14.01,2013-03-14 05:35:00,
2013-03-14 00:40:00,23.5,19.1,30.23,SE,141,2.0,5.0,83,0.00,,BKN080,0.00,VWS V14.01,2013-03-14 05:40:00,
2013-03-14 00:45:00,23.5,19.1,30.23,East,96,1.0,3.0,83,0.00,,BKN080,0.00,VWS V14.01,2013-03-14 05:45:00,
2013-03-14 00:50:00,23.5,19.1,30.23,SSE,163,2.0,3.0,83,0.00,,BKN080,0.00,VWS V14.01,2013-03-14 05:50:00,
2013-03-14 00:55:00,23.4,19.0,30.22,South,171,2.0,5.0,83,0.00,,BKN080,0.00,VWS V14.01,2013-03-14 05:55:00,
2013-03-14 01:00:00,23.5,19.1,30.22,SSE,167,1.0,4.0,83,0.00,,BKN080,0.00,VWS V14.01,2013-03-14 06:00:00,
2013-03-14 01:06:00,23.5,19.1,30.22,SSW,207,4.0,4.0,83,0.00,,BKN080,0.00,VWS V14.01,2013-03-14 06:06:00,
2013-03-14 01:12:00,23.5,19.1,30.22,South,172,2.0,4.0,83,0.00,,BKN080,0.00,VWS V14.01,2013-03-14 06:12:00,
2013-03-14 01:18:00,23.4,19.0,30.23,SSE,154,2.0,3.0,83,0.00,,BKN080,0.00,VWS V14.01,2013-03-14 06:18:00,
2013-03-14 01:24:00,23.4,19.3,30.23,SW,224,4.0,4.0,84,0.00,,BKN080,0.00,VWS V14.01,2013-03-14 06:24:00,
2013-03-14 01:30:00,23.5,19.4,30.23,SSE,166,2.0,2.0,84,0.00,,BKN080,0.00,VWS V14.01,2013-03-14 06:30:00,
2013-03-14 01:35:00,23.5,19.4,30.23,SW,216,1.0,4.0,84,0.00,,OVC080,0.00,VWS V14.01,2013-03-14 06:35:00,
2013-03-14 01:40:00,23.5,19.4,30.23,SW,221,1.0,4.0,84,0.00,,OVC080,0.00,VWS V14.01,2013-03-14 06:40:00,
2013-03-14 01:45:00,23.5,19.4,30.22,ESE,104,1.0,2.0,84,0.00,,OVC080,0.00,VWS V14.01,2013-03-14 06:45:00,
2013-03-14 01:50:00,23.5,19.4,30.21,ESE,115,0.0,4.0,84,0.00,,OVC080,0.00,VWS V14.01,2013-03-14 06:50:00,
2013-03-14 01:55:00,23.5,19.4,30.21,South,184,4.0,4.0,84,0.00,,OVC080,0.00,VWS V14.01,2013-03-14 06:55:00,
2013-03-14 02:00:00,23.5,19.4,30.21,ESE,103,2.0,4.0,84,0.00,,OVC080,0.00,VWS V14.01,2013-03-14 07:00:00,
2013-03-14 02:06:00,23.5,19.7,30.21,SE,141,2.0,2.0,85,0.00,,OVC085,0.00,VWS V14.01,2013-03-14 07:06:00,
2013-03-14 02:12:00,23.5,19.7,30.21,ESE,111,1.0,2.0,85,0.00,,OVC085,0.00,VWS V14.01,2013-03-14 07:12:00,
2013-03-14 02:18:00,23.5,19.7,30.21,SE,146,2.0,2.0,85,0.00,,OVC085,0.00,VWS V14.01,2013-03-14 07:18:00,
2013-03-14 02:24:00,23.5,19.7,30.21,SSE,152,2.0,2.0,85,0.00,,OVC085,0.00,VWS V14.01,2013-03-14 07:24:00,
2013-03-14 02:30:00,23.5,19.7,30.21,East,101,1.0,3.0,85,0.00,,OVC085,0.00,VWS V14.01,2013-03-14 07:30:00,
2013-03-14 02:35:00,23.5,19.7,30.21,SE,142,3.0,5.0,85,0.00,,OVC075,0.00,VWS V14.01,2013-03-14 07:35:00,
2013-03-14 02:40:00,23.5,19.7,30.21,ESE,107,4.0,5.0,85,0.00,,OVC075,0.00,VWS V14.01,2013-03-14 07:40:00,
2013-03-14 02:45:00,23.4,19.6,30.21,SE,127,3.0,4.0,85,0.00,,OVC075,0.00,VWS V14.01,2013-03-14 07:45:00,
2013-03-14 02:50:00,23.4,19.6,30.21,ESE,108,2.0,4.0,85,0.00,,OVC075,0.00,VWS V14.01,2013-03-14 07:50:00,
2013-03-14 02:55:00,23.4,19.6,30.21,ESE,112,2.0,3.0,85,0.00,,OVC075,0.00,VWS V14.01,2013-03-14 07:55:00,
2013-03-14 03:00:00,23.5,19.7,30.21,SE,135,1.0,3.0,85,0.00,,OVC075,0.00,VWS V14.01,2013-03-14 08:00:00,
2013-03-14 03:07:00,23.5,19.7,30.20,SSE,153,1.0,4.0,85,0.00,,OVC070,0.00,VWS V14.01,2013-03-14 08:07:00,
2013-03-14 03:13:00,23.5,19.7,30.20,ESE,117,3.0,3.0,85,0.00,,OVC070,0.00,VWS V14.01,2013-03-14 08:13:00,
2013-03-14 03:19:00,23.5,19.7,30.19,South,170,3.0,6.0,85,0.00,,OVC070,0.00,VWS V14.01,2013-03-14 08:19:00,
2013-03-14 03:25:00,23.6,19.8,30.19,SE,129,2.0,3.0,85,0.00,,OVC070,0.00,VWS V14.01,2013-03-14 08:25:00,
2013-03-14 03:31:00,23.7,19.9,30.18,South,184,2.0,4.0,85,0.00,,OVC070,0.00,VWS V14.01,2013-03-14 08:31:00,
2013-03-14 03:37:00,23.7,19.9,30.19,SSE,155,1.0,4.0,85,0.00,,OVC055,0.00,VWS V14.01,2013-03-14 08:37:00,
2013-03-14 03:43:00,23.8,20.0,30.19,SE,146,1.0,2.0,85,0.00,,OVC055,0.00,VWS V14.01,2013-03-14 08:43:00,
2013-03-14 03:49:00,23.9,20.1,30.19,ESE,112,2.0,2.0,85,0.00,,OVC055,0.00,VWS V14.01,2013-03-14 08:49:00,
2013-03-14 03:55:00,24.0,20.1,30.19,ESE,117,0.0,3.0,85,0.00,,OVC055,0.00,VWS V14.01,2013-03-14 08:55:00,
2013-03-14 04:01:00,24.1,20.0,30.20,SSE,159,3.0,4.0,84,0.00,,OVC055,0.00,VWS V14.01,2013-03-14 09:01:00,
2013-03-14 04:08:00,24.2,20.1,30.19,East,89,1.0,1.0,84,0.00,,OVC055,0.00,VWS V14.01,2013-03-14 09:08:00,
2013-03-14 04:14:00,24.3,20.2,30.19,SE,138,0.0,1.0,84,0.00,,OVC055,0.00,VWS V14.01,2013-03-14 09:14:00,
2013-03-14 04:20:00,24.3,20.2,30.18,East,96,3.0,5.0,84,0.00,,OVC055,0.00,VWS V14.01,2013-03-14 09:20:00,
2013-03-14 04:25:00,24.3,20.7,30.17,ESE,117,3.0,5.0,86,0.00,,OVC055,0.00,VWS V14.01,2013-03-14 09:25:00,
2013-03-14 04:32:00,24.1,21.1,30.16,East,92,4.0,5.0,88,0.00,,OVC050,0.00,VWS V14.01,2013-03-14 09:32:00,
2013-03-14 04:38:00,24.0,21.2,30.16,East,82,3.0,7.0,89,0.00,,OVC050,0.00,VWS V14.01,2013-03-14 09:38:00,
2013-03-14 04:44:00,24.0,21.5,30.15,ENE,58,6.0,6.0,90,0.00,,OVC050,0.00,VWS V14.01,2013-03-14 09:44:00,
2013-03-14 04:50:00,24.0,21.5,30.15,ENE,70,4.0,6.0,90,0.00,,OVC050,0.00,VWS V14.01,2013-03-14 09:50:00,
2013-03-14 04:55:00,24.0,21.8,30.14,East,83,4.0,5.0,91,0.00,,OVC050,0.00,VWS V14.01,2013-03-14 09:55:00,
2013-03-14 05:00:00,24.0,21.8,30.15,East,98,5.0,6.0,91,0.00,,OVC050,0.00,VWS V14.01,2013-03-14 10:00:00,
2013-03-14 05:07:00,24.0,21.8,30.15,East,93,5.0,5.0,91,0.00,,,0.00,VWS V14.01,2013-03-14 10:07:00,
2013-03-14 05:13:00,24.0,21.8,30.13,SE,128,5.0,5.0,91,0.00,,,0.00,VWS V14.01,2013-03-14 10:13:00,
2013-03-14 05:19:00,24.0,21.8,30.14,East,88,4.0,6.0,91,0.00,,,0.00,VWS V14.01,2013-03-14 10:19:00,
2013-03-14 05:25:00,24.0,21.8,30.14,ESE,103,2.0,6.0,91,0.00,,,0.00,VWS V14.01,2013-03-14 10:25:00,
2013-03-14 05:30:00,24.0,21.8,30.14,ESE,104,3.0,6.0,91,0.00,,,0.00,VWS V14.01,2013-03-14 10:30:00,
2013-03-14 05:35:00,24.0,21.8,30.14,East,99,3.0,5.0,91,0.00,,,0.00,VWS V14.01,2013-03-14 10:35:00,
2013-03-14 05:40:00,24.0,21.8,30.14,East,100,3.0,6.0,91,0.00,,,0.00,VWS V14.01,2013-03-14 10:40:00,
2013-03-14 05:45:00,24.0,22.0,30.14,East,92,3.0,6.0,92,0.00,,,0.00,VWS V14.01,2013-03-14 10:45:00,
2013-03-14 05:50:00,24.1,22.4,30.13,ENE,74,3.0,7.0,93,0.00,,,0.00,VWS V14.01,2013-03-14 10:50:00,
2013-03-14 05:55:00,24.1,22.4,30.14,East,91,2.0,6.0,93,0.00,,,0.00,VWS V14.01,2013-03-14 10:55:00,
2013-03-14 06:00:00,24.1,22.4,30.14,East,80,2.0,3.0,93,0.00,,,0.00,VWS V14.01,2013-03-14 11:00:00,
2013-03-14 06:05:00,24.1,22.4,30.13,East,89,4.0,6.0,93,0.00,,,0.00,VWS V14.01,2013-03-14 11:05:00,
2013-03-14 06:11:00,23.9,22.2,30.12,East,89,4.0,5.0,93,0.00,,,0.00,VWS V14.01,2013-03-14 11:11:00,
2013-03-14 06:17:00,23.8,22.1,30.12,ENE,74,5.0,7.0,93,0.00,,,0.00,VWS V14.01,2013-03-14 11:17:00,
2013-03-14 06:24:00,23.7,22.0,30.11,East,82,4.0,7.0,93,0.00,,,0.00,VWS V14.01,2013-03-14 11:24:00,
2013-03-14 06:30:00,23.6,21.9,30.11,East,86,5.0,7.0,93,0.00,,,0.00,VWS V14.01,2013-03-14 11:30:00,
2013-03-14 06:35:00,23.6,22.1,30.11,East,89,6.0,7.0,94,0.00,,,0.00,VWS V14.01,2013-03-14 11:35:00,
2013-03-14 06:40:00,23.7,22.2,30.11,East,83,6.0,8.0,94,0.00,,,0.00,VWS V14.01,2013-03-14 11:40:00,
2013-03-14 06:45:00,23.7,22.2,30.10,East,89,6.0,7.0,94,0.00,,,0.00,VWS V14.01,2013-03-14 11:45:00,
2013-03-14 06:50:00,23.8,22.3,30.10,ENE,60,4.0,10.0,94,0.00,,,0.00,VWS V14.01,2013-03-14 11:50:00,
2013-03-14 06:55:00,23.8,22.3,30.10,ENE,78,5.0,8.0,94,0.00,,,0.00,VWS V14.01,2013-03-14 11:55:00,
2013-03-14 07:00:00,23.8,22.3,30.09,ENE,68,6.0,10.0,94,0.00,,,0.00,VWS V14.01,2013-03-14 12:00:00,
2013-03-14 07:05:00,23.8,22.3,30.09,East,95,4.0,8.0,94,0.00,,,0.00,VWS V14.01,2013-03-14 12:05:00,
2013-03-14 07:10:00,23.8,22.3,30.09,East,95,7.0,8.0,94,0.00,,,0.00,VWS V14.01,2013-03-14 12:10:00,
2013-03-14 07:15:00,23.8,22.3,30.09,East,87,6.0,7.0,94,0.00,,,0.00,VWS V14.01,2013-03-14 12:15:00,
2013-03-14 07:20:00,23.9,22.4,30.09,East,95,4.0,9.0,94,0.00,,,0.00,VWS V14.01,2013-03-14 12:20:00,
2013-03-14 07:25:00,24.0,22.8,30.09,ENE,70,3.0,8.0,95,0.00,,,0.00,VWS V14.01,2013-03-14 12:25:00,
2013-03-14 07:30:00,24.1,22.9,30.09,ENE,68,5.0,9.0,95,0.00,,,0.00,VWS V14.01,2013-03-14 12:30:00,
2013-03-14 07:35:00,24.2,23.0,30.10,East,91,7.0,11.0,95,0.00,,,0.00,VWS V14.01,2013-03-14 12:35:00,
2013-03-14 07:40:00,24.3,23.1,30.10,East,99,5.0,7.0,95,0.00,,,0.00,VWS V14.01,2013-03-14 12:40:00,
2013-03-14 07:45:00,24.4,23.2,30.10,East,92,4.0,9.0,95,0.00,,,0.00,VWS V14.01,2013-03-14 12:45:00,
2013-03-14 07:50:00,24.5,23.3,30.10,East,85,7.0,7.0,95,0.00,,,0.00,VWS V14.01,2013-03-14 12:50:00,
2013-03-14 07:55:00,24.6,23.4,30.10,East,91,2.0,7.0,95,0.00,,,0.00,VWS V14.01,2013-03-14 12:55:00,
2013-03-14 08:00:00,24.6,23.4,30.10,ESE,105,3.0,3.0,95,0.00,,,0.00,VWS V14.01,2013-03-14 13:00:00,
2013-03-14 08:05:00,24.8,23.6,30.10,East,91,5.0,5.0,95,0.00,,OVC110,0.00,VWS V14.01,2013-03-14 13:05:00,
2013-03-14 08:10:00,24.9,23.7,30.10,ESE,105,3.0,6.0,95,0.00,,OVC110,0.00,VWS V14.01,2013-03-14 13:10:00,
2013-03-14 08:15:00,25.0,23.8,30.11,ENE,68,4.0,6.0,95,0.00,,OVC110,0.00,VWS V14.01,2013-03-14 13:15:00,
2013-03-14 08:20:00,25.2,24.0,30.10,East,83,3.0,6.0,95,0.00,,OVC060,0.00,VWS V14.01,2013-03-14 13:20:00,
2013-03-14 08:25:00,25.3,24.1,30.10,ESE,103,3.0,6.0,95,0.00,,OVC060,0.00,VWS V14.01,2013-03-14 13:25:00,
2013-03-14 08:30:00,25.4,24.2,30.10,ESE,103,4.0,5.0,95,0.00,,OVC060,0.00,VWS V14.01,2013-03-14 13:30:00,
2013-03-14 08:35:00,25.5,24.3,30.10,East,89,3.0,4.0,95,0.00,,OVC085,0.00,VWS V14.01,2013-03-14 13:35:00,
2013-03-14 08:40:00,25.7,24.5,30.11,East,92,2.0,5.0,95,0.00,,OVC085,0.00,VWS V14.01,2013-03-14 13:40:00,
2013-03-14 08:45:00,25.8,24.3,30.11,ENE,70,4.0,5.0,94,0.00,,OVC085,0.00,VWS V14.01,2013-03-14 13:45:00,
2013-03-14 08:52:00,25.8,24.3,30.10,East,88,3.0,4.0,94,0.00,,OVC085,0.00,VWS V14.01,2013-03-14 13:52:00,
2013-03-14 08:58:00,25.8,24.3,30.10,SE,124,4.0,6.0,94,0.00,,OVC085,0.00,VWS V14.01,2013-03-14 13:58:00,
2013-03-14 09:04:00,26.0,24.5,30.11,ESE,112,2.0,4.0,94,0.00,,OVC110,0.00,VWS V14.01,2013-03-14 14:04:00,
2013-03-14 09:10:00,26.2,24.7,30.10,ENE,75,3.0,5.0,94,0.00,,OVC110,0.00,VWS V14.01,2013-03-14 14:10:00,
2013-03-14 09:15:00,26.7,25.2,30.10,East,86,3.0,8.0,94,0.00,,OVC110,0.00,VWS V14.01,2013-03-14 14:15:00,
2013-03-14 09:20:00,27.2,25.7,30.10,East,79,3.0,6.0,94,0.00,,OVC100,0.00,VWS V14.01,2013-03-14 14:20:00,
2013-03-14 09:25:00,27.4,25.6,30.11,ENE,77,3.0,5.0,93,0.00,,OVC100,0.00,VWS V14.01,2013-03-14 14:25:00,
2013-03-14 09:30:00,27.6,25.6,30.10,ESE,108,2.0,6.0,92,0.00,,OVC100,0.00,VWS V14.01,2013-03-14 14:30:00,
2013-03-14 09:35:00,27.6,25.3,30.11,ESE,105,6.0,7.0,91,0.00,,BKN090,0.00,VWS V14.01,2013-03-14 14:35:00,
2013-03-14 09:40:00,28.0,26.0,30.11,East,101,2.0,5.0,92,0.00,,BKN090,0.00,VWS V14.01,2013-03-14 14:40:00,
2013-03-14 09:45:00,28.4,26.1,30.11,East,101,2.0,6.0,91,0.00,,BKN090,0.00,VWS V14.01,2013-03-14 14:45:00,
2013-03-14 09:50:00,28.8,26.5,30.11,SE,138,3.0,6.0,91,0.00,,BKN090,0.00,VWS V14.01,2013-03-14 14:50:00,
2013-03-14 09:55:00,29.4,26.8,30.11,SSE,153,2.0,5.0,90,0.00,,BKN090,0.00,VWS V14.01,2013-03-14 14:55:00,
2013-03-14 10:01:00,30.1,27.5,30.10,East,101,4.0,5.0,90,0.00,,BKN090,0.00,VWS V14.01,2013-03-14 15:01:00,
2013-03-14 10:11:00,30.9,27.5,30.10,ESE,117,4.0,6.0,87,0.00,,BKN090,0.00,VWS V14.01,2013-03-14 15:11:00,
2013-03-14 10:17:00,31.1,27.1,30.11,East,84,5.0,5.0,85,0.00,,BKN090,0.00,VWS V14.01,2013-03-14 15:17:00,
2013-03-14 10:23:00,31.3,27.3,30.10,ESE,106,5.0,5.0,85,0.00,,BKN090,0.00,VWS V14.01,2013-03-14 15:23:00,
2013-03-14 10:30:00,31.4,27.1,30.09,East,88,6.0,7.0,84,0.00,,BKN090,0.00,VWS V14.01,2013-03-14 15:30:00,
2013-03-14 10:36:00,31.3,26.8,30.10,ENE,72,7.0,9.0,83,0.00,,CLR,0.00,VWS V14.01,2013-03-14 15:36:00,
2013-03-14 10:42:00,31.6,27.0,30.10,ESE,105,5.0,7.0,83,0.00,,CLR,0.00,VWS V14.01,2013-03-14 15:42:00,
2013-03-14 10:48:00,31.7,27.1,30.10,East,81,4.0,5.0,83,0.00,,CLR,0.00,VWS V14.01,2013-03-14 15:48:00,
2013-03-14 10:55:00,32.3,27.4,30.10,ESE,105,3.0,6.0,82,0.00,,CLR,0.00,VWS V14.01,2013-03-14 15:55:00,
2013-03-14 11:00:00,33.2,28.0,30.10,SSE,148,5.0,5.0,81,0.00,,CLR,0.00,VWS V14.01,2013-03-14 16:00:00,
2013-03-14 11:05:00,33.6,27.8,30.10,East,85,5.0,7.0,79,0.00,,CLR,0.00,VWS V14.01,2013-03-14 16:05:00,
2013-03-14 11:10:00,33.8,27.4,30.10,ESE,121,5.0,6.0,77,0.00,,CLR,0.00,VWS V14.01,2013-03-14 16:10:00,
2013-03-14 11:15:00,33.8,27.4,30.10,East,86,3.0,6.0,77,0.00,,CLR,0.00,VWS V14.01,2013-03-14 16:15:00,
2013-03-14 11:22:00,34.3,27.9,30.10,SE,131,4.0,5.0,77,0.00,,CLR,0.00,VWS V14.01,2013-03-14 16:22:00,
2013-03-14 11:28:00,34.7,27.9,30.09,ESE,109,4.0,5.0,76,0.00,,CLR,0.00,VWS V14.01,2013-03-14 16:28:00,
2013-03-14 11:34:00,35.0,27.9,30.10,SE,124,3.0,6.0,75,0.00,,CLR,0.00,VWS V14.01,2013-03-14 16:34:00,
2013-03-14 11:41:00,35.3,28.2,30.10,ESE,121,1.0,7.0,75,0.00,,CLR,0.00,VWS V14.01,2013-03-14 16:41:00,
2013-03-14 11:49:00,35.8,27.7,30.10,SSE,148,4.0,5.0,72,0.01,,CLR,0.01,VWS V14.01,2013-03-14 16:49:00,
2013-03-14 11:55:00,36.0,28.5,30.09,ESE,102,3.0,5.0,74,0.02,,CLR,0.02,VWS V14.01,2013-03-14 16:55:00,
2013-03-14 12:01:00,36.4,28.6,30.09,SSE,155,2.0,6.0,73,0.03,,CLR,0.03,VWS V14.01,2013-03-14 17:01:00,
2013-03-14 12:07:00,36.8,28.0,30.08,ESE,122,2.0,6.0,70,0.03,,CLR,0.03,VWS V14.01,2013-03-14 17:07:00,
2013-03-14 12:13:00,37.0,28.5,30.08,SSE,148,4.0,4.0,71,0.04,,CLR,0.04,VWS V14.01,2013-03-14 17:13:00,
2013-03-14 12:19:00,37.7,28.8,30.08,SSE,148,3.0,5.0,70,0.04,,CLR,0.04,VWS V14.01,2013-03-14 17:19:00,
2013-03-14 12:25:00,38.7,28.7,30.09,SE,136,3.0,6.0,67,0.04,,CLR,0.04,VWS V14.01,2013-03-14 17:25:00,
2013-03-14 12:30:00,38.7,28.3,30.09,East,95,4.0,6.0,66,0.05,,CLR,0.05,VWS V14.01,2013-03-14 17:30:00,
2013-03-14 12:35:00,38.3,28.7,30.09,East,79,3.0,7.0,68,0.05,,CLR,0.05,VWS V14.01,2013-03-14 17:35:00,
2013-03-14 12:40:00,37.8,27.8,30.08,ENE,74,4.0,6.0,67,0.05,,CLR,0.05,VWS V14.01,2013-03-14 17:40:00,
2013-03-14 12:45:00,37.2,27.6,30.08,ENE,74,5.0,6.0,68,0.06,,CLR,0.06,VWS V14.01,2013-03-14 17:45:00,
2013-03-14 12:50:00,37.8,28.6,30.09,ESE,114,1.0,4.0,69,0.05,,CLR,0.06,VWS V14.01,2013-03-14 17:50:00,
2013-03-14 12:55:00,39.0,29.0,30.09,SE,146,3.0,4.0,67,0.04,,CLR,0.06,VWS V14.01,2013-03-14 17:55:00,
2013-03-14 13:00:00,39.6,29.2,30.09,East,100,0.0,3.0,66,0.04,,CLR,0.06,VWS V14.01,2013-03-14 18:00:00,
2013-03-14 13:05:00,41.0,29.4,30.10,SSW,210,0.0,2.0,63,0.04,,CLR,0.07,VWS V14.01,2013-03-14 18:05:00,
2013-03-14 13:10:00,41.6,28.8,30.11,West,275,2.0,4.0,60,0.04,,CLR,0.07,VWS V14.01,2013-03-14 18:10:00,
2013-03-14 13:15:00,40.1,27.8,30.10,West,264,2.0,5.0,61,0.04,,CLR,0.07,VWS V14.01,2013-03-14 18:15:00,
2013-03-14 13:20:00,39.2,27.3,30.09,West,260,2.0,3.0,62,0.03,,CLR,0.07,VWS V14.01,2013-03-14 18:20:00,
2013-03-14 13:26:00,39.7,28.5,30.09,West,267,0.0,2.0,64,0.03,,CLR,0.07,VWS V14.01,2013-03-14 18:26:00,
2013-03-14 13:32:00,42.3,31.4,30.08,West,264,0.0,1.0,65,0.02,,SCT110,0.07,VWS V14.01,2013-03-14 18:32:00,
2013-03-14 13:39:00,43.9,28.8,30.08,East,93,2.0,3.0,55,0.03,,SCT110,0.08,VWS V14.01,2013-03-14 18:39:00,
2013-03-14 13:45:00,42.8,29.1,30.07,ESE,108,0.0,3.0,58,0.03,,SCT110,0.08,VWS V14.01,2013-03-14 18:45:00,
2013-03-14 13:50:00,43.1,28.9,30.07,ESE,121,4.0,4.0,57,0.02,,SCT110,0.08,VWS V14.01,2013-03-14 18:50:00,
2013-03-14 13:55:00,42.5,29.2,30.08,ESE,119,1.0,4.0,59,0.02,,SCT110,0.08,VWS V14.01,2013-03-14 18:55:00,
2013-03-14 14:01:00,42.9,29.6,30.08,East,79,1.0,2.0,59,0.02,,SCT110,0.08,VWS V14.01,2013-03-14 19:01:00,
2013-03-14 14:07:00,43.1,29.3,30.08,SE,141,1.0,1.0,58,0.01,,CLR,0.08,VWS V14.01,2013-03-14 19:07:00,
2013-03-14 14:13:00,43.8,29.6,30.07,ESE,106,4.0,4.0,57,0.01,,CLR,0.08,VWS V14.01,2013-03-14 19:13:00,
2013-03-14 14:20:00,42.0,29.1,30.07,ENE,78,1.0,4.0,60,0.01,,CLR,0.08,VWS V14.01,2013-03-14 19:20:00,
2013-03-14 14:25:00,41.8,29.0,30.07,SSE,165,2.0,4.0,60,0.01,,CLR,0.08,VWS V14.01,2013-03-14 19:25:00,
2013-03-14 14:32:00,42.8,29.1,30.07,SSE,155,1.0,5.0,58,0.01,,CLR,0.08,VWS V14.01,2013-03-14 19:32:00,
2013-03-14 14:38:00,43.4,29.2,30.07,SW,223,2.0,4.0,57,0.00,,CLR,0.08,VWS V14.01,2013-03-14 19:38:00,
2013-03-14 14:44:00,42.5,28.8,30.07,WSW,242,1.0,4.0,58,0.00,,CLR,0.08,VWS V14.01,2013-03-14 19:44:00,
2013-03-14 14:50:00,42.5,29.2,30.07,West,276,3.0,3.0,59,0.00,,CLR,0.08,VWS V14.01,2013-03-14 19:50:00,
2013-03-14 14:55:00,41.4,28.2,30.08,West,259,3.0,6.0,59,0.00,,CLR,0.08,VWS V14.01,2013-03-14 19:55:00,
2013-03-14 15:00:00,40.3,27.9,30.07,West,264,3.0,4.0,61,0.00,,CLR,0.08,VWS V14.01,2013-03-14 20:00:00,
2013-03-14 15:05:00,39.6,28.1,30.07,WSW,256,3.0,3.0,63,0.00,,CLR,0.08,VWS V14.01,2013-03-14 20:05:00,
2013-03-14 15:10:00,39.3,27.8,30.07,West,267,3.0,3.0,63,0.00,,CLR,0.08,VWS V14.01,2013-03-14 20:10:00,
2013-03-14 15:15:00,39.1,27.6,30.07,West,262,1.0,3.0,63,0.00,,CLR,0.08,VWS V14.01,2013-03-14 20:15:00,
2013-03-14 15:20:00,39.5,27.6,30.07,West,274,2.0,3.0,62,0.00,,CLR,0.08,VWS V14.01,2013-03-14 20:20:00,
2013-03-14 15:26:00,40.1,28.5,30.07,West,260,1.0,2.0,63,0.00,,CLR,0.08,VWS V14.01,2013-03-14 20:26:00,
2013-03-14 15:32:00,41.1,28.3,30.07,West,262,1.0,1.0,60,0.00,,CLR,0.08,VWS V14.01,2013-03-14 20:32:00,
2013-03-14 15:38:00,41.6,27.9,30.06,West,261,0.0,1.0,58,0.00,,CLR,0.08,VWS V14.01,2013-03-14 20:38:00,
2013-03-14 15:45:00,42.2,28.9,30.05,South,169,4.0,4.0,59,0.00,,CLR,0.08,VWS V14.01,2013-03-14 20:45:00,
2013-03-14 15:50:00,42.1,29.2,30.06,ESE,117,1.0,4.0,60,0.00,,CLR,0.08,VWS V14.01,2013-03-14 20:50:00,
2013-03-14 15:55:00,42.2,28.5,30.06,SE,130,3.0,3.0,58,0.00,,CLR,0.08,VWS V14.01,2013-03-14 20:55:00,
2013-03-14 16:00:00,42.6,29.3,30.08,SW,218,3.0,3.0,59,0.00,,CLR,0.08,VWS V14.01,2013-03-14 21:00:00,
2013-03-14 16:07:00,43.0,28.8,30.09,West,275,1.0,3.0,57,0.00,,CLR,0.08,VWS V14.01,2013-03-14 21:07:00,
2013-03-14 16:14:00,41.6,28.4,30.09,West,273,4.0,4.0,59,0.00,,CLR,0.08,VWS V14.01,2013-03-14 21:14:00,
2013-03-14 16:20:00,39.8,27.9,30.09,West,267,3.0,5.0,62,0.00,,CLR,0.08,VWS V14.01,2013-03-14 21:20:00,
2013-03-14 16:25:00,39.1,28.0,30.09,West,269,4.0,5.0,64,0.00,,CLR,0.08,VWS V14.01,2013-03-14 21:25:00,
2013-03-14 16:30:00,38.8,28.1,30.09,West,272,3.0,4.0,65,0.00,,CLR,0.08,VWS V14.01,2013-03-14 21:30:00,
2013-03-14 16:35:00,38.5,28.1,30.09,West,265,2.0,3.0,66,0.00,,CLR,0.08,VWS V14.01,2013-03-14 21:35:00,
2013-03-14 16:40:00,38.4,28.0,30.09,West,271,2.0,4.0,66,0.00,,CLR,0.08,VWS V14.01,2013-03-14 21:40:00,
2013-03-14 16:45:00,38.8,28.1,30.09,West,266,2.0,3.0,65,0.00,,CLR,0.08,VWS V14.01,2013-03-14 21:45:00,
2013-03-14 16:50:00,39.0,27.9,30.09,WSW,240,0.0,2.0,64,0.00,,CLR,0.08,VWS V14.01,2013-03-14 21:50:00,
2013-03-14 16:55:00,39.5,28.0,30.09,SSW,200,3.0,3.0,63,0.00,,CLR,0.08,VWS V14.01,2013-03-14 21:55:00,
2013-03-14 17:00:00,39.8,27.9,30.08,WSW,252,2.0,3.0,62,0.00,,CLR,0.08,VWS V14.01,2013-03-14 22:00:00,
2013-03-14 17:05:00,40.0,28.4,30.08,SSW,205,0.0,3.0,63,0.00,,CLR,0.08,VWS V14.01,2013-03-14 22:05:00,
2013-03-14 17:10:00,40.0,28.0,30.07,SSE,152,2.0,3.0,62,0.00,,CLR,0.08,VWS V14.01,2013-03-14 22:10:00,
2013-03-14 17:15:00,39.9,28.0,30.07,SSE,160,1.0,2.0,62,0.00,,CLR,0.08,VWS V14.01,2013-03-14 22:15:00,
2013-03-14 17:20:00,39.7,27.8,30.07,SSW,195,2.0,4.0,62,0.00,,CLR,0.08,VWS V14.01,2013-03-14 22:20:00,
2013-03-14 17:25:00,39.4,27.9,30.06,SSW,200,2.0,3.0,63,0.00,,CLR,0.08,VWS V14.01,2013-03-14 22:25:00,
2013-03-14 17:30:00,39.4,27.9,30.05,SW,219,1.0,2.0,63,0.00,,CLR,0.08,VWS V14.01,2013-03-14 22:30:00,
2013-03-14 17:35:00,39.3,27.8,30.06,SSE,160,2.0,3.0,63,0.00,,CLR,0.08,VWS V14.01,2013-03-14 22:35:00,
2013-03-14 17:40:00,39.2,27.7,30.06,South,176,1.0,2.0,63,0.00,,CLR,0.08,VWS V14.01,2013-03-14 22:40:00,
2013-03-14 17:45:00,39.0,27.5,30.05,SW,217,1.0,3.0,63,0.00,,CLR,0.08,VWS V14.01,2013-03-14 22:45:00,
2013-03-14 17:50:00,38.9,27.8,30.05,South,189,3.0,3.0,64,0.00,,CLR,0.08,VWS V14.01,2013-03-14 22:50:00,
2013-03-14 17:55:00,38.6,27.5,30.05,SW,219,3.0,4.0,64,0.00,,CLR,0.08,VWS V14.01,2013-03-14 22:55:00,
2013-03-14 18:00:00,38.4,27.7,30.05,WSW,246,1.0,3.0,65,0.00,,CLR,0.08,VWS V14.01,2013-03-14 23:00:00,
2013-03-14 18:05:00,38.5,27.8,30.05,South,188,1.0,3.0,65,0.00,,CLR,0.08,VWS V14.01,2013-03-14 23:05:00,
2013-03-14 18:10:00,38.6,27.9,30.05,SW,226,1.0,2.0,65,0.00,,CLR,0.08,VWS V14.01,2013-03-14 23:10:00,
2013-03-14 18:15:00,38.6,27.9,30.05,SSE,148,1.0,2.0,65,0.00,,CLR,0.08,VWS V14.01,2013-03-14 23:15:00,
2013-03-14 18:20:00,38.4,28.0,30.05,SE,144,1.0,2.0,66,0.00,,CLR,0.08,VWS V14.01,2013-03-14 23:20:00,
2013-03-14 18:25:00,38.0,27.7,30.05,SSE,159,0.0,2.0,66,0.00,,CLR,0.08,VWS V14.01,2013-03-14 23:25:00,
2013-03-14 18:30:00,37.9,27.9,30.05,SW,231,2.0,2.0,67,0.00,,CLR,0.08,VWS V14.01,2013-03-14 23:30:00,
2013-03-14 18:36:00,37.6,27.6,30.05,SW,231,1.0,2.0,67,0.00,,CLR,0.08,VWS V14.01,2013-03-14 23:36:00,
2013-03-14 18:42:00,37.3,28.1,30.05,SW,231,0.0,0.0,69,0.00,,CLR,0.08,VWS V14.01,2013-03-14 23:42:00,
2013-03-14 18:48:00,37.1,27.5,30.05,SW,231,0.0,0.0,68,0.00,,CLR,0.08,VWS V14.01,2013-03-14 23:48:00,
2013-03-14 18:55:00,36.5,27.3,30.05,SW,231,0.0,0.0,69,0.00,,CLR,0.08,VWS V14.01,2013-03-14 23:55:00,
2013-03-14 19:00:00,35.6,26.8,30.06,SW,231,0.0,0.0,70,0.00,,CLR,0.08,VWS V14.01,2013-03-15 00:00:00,
2013-03-14 19:05:00,34.7,26.3,30.06,WSW,238,0.0,1.0,71,0.00,,CLR,0.08,VWS V14.01,2013-03-15 00:05:00,
2013-03-14 19:10:00,33.6,25.9,30.06,WSW,237,0.0,0.0,73,0.00,,CLR,0.08,VWS V14.01,2013-03-15 00:10:00,
2013-03-14 19:15:00,32.6,25.6,30.06,WSW,238,0.0,0.0,75,0.00,,CLR,0.08,VWS V14.01,2013-03-15 00:15:00,
2013-03-14 19:20:00,31.7,25.0,30.06,WSW,237,0.0,0.0,76,0.00,,CLR,0.08,VWS V14.01,2013-03-15 00:20:00,
2013-03-14 19:25:00,31.0,25.0,30.06,WSW,238,0.0,0.0,78,0.00,,CLR,0.08,VWS V14.01,2013-03-15 00:25:00,
2013-03-14 19:30:00,30.3,24.6,30.06,WSW,238,0.0,0.0,79,0.00,,CLR,0.08,VWS V14.01,2013-03-15 00:30:00,
2013-03-14 19:35:00,29.6,24.2,30.06,WSW,237,0.0,0.0,80,0.00,,CLR,0.08,VWS V14.01,2013-03-15 00:35:00,
2013-03-14 19:40:00,29.1,24.0,30.06,WSW,238,0.0,0.0,81,0.00,,CLR,0.08,VWS V14.01,2013-03-15 00:40:00,
2013-03-14 19:45:00,28.7,24.2,30.06,WSW,238,0.0,0.0,83,0.00,,CLR,0.08,VWS V14.01,2013-03-15 00:45:00,
2013-03-14 19:50:00,28.2,23.7,30.06,WSW,238,0.0,0.0,83,0.00,,CLR,0.08,VWS V14.01,2013-03-15 00:50:00,
2013-03-14 19:55:00,27.9,23.4,30.06,WSW,238,0.0,0.0,83,0.00,,CLR,0.08,VWS V14.01,2013-03-15 00:55:00,
2013-03-14 20:00:00,27.9,24.0,30.05,WSW,238,0.0,0.0,85,0.00,,CLR,0.08,VWS V14.01,2013-03-15 01:00:00,
2013-03-14 20:07:00,28.0,24.4,30.05,WSW,238,0.0,0.0,86,0.00,,CLR,0.08,VWS V14.01,2013-03-15 01:07:00,
2013-03-14 20:13:00,28.1,24.7,30.05,WSW,238,0.0,1.0,87,0.00,,CLR,0.08,VWS V14.01,2013-03-15 01:13:00,
2013-03-14 20:19:00,28.1,24.5,30.05,WSW,238,0.0,0.0,86,0.00,,CLR,0.08,VWS V14.01,2013-03-15 01:19:00,
2013-03-14 20:25:00,28.0,24.6,30.05,WSW,238,0.0,0.0,87,0.00,,CLR,0.08,VWS V14.01,2013-03-15 01:25:00,
2013-03-14 20:30:00,27.8,24.2,30.04,WSW,238,0.0,0.0,86,0.00,,CLR,0.08,VWS V14.01,2013-03-15 01:30:00,
2013-03-14 20:35:00,27.7,24.3,30.04,WSW,238,0.0,1.0,87,0.00,,CLR,0.08,VWS V14.01,2013-03-15 01:35:00,
2013-03-14 20:40:00,27.9,24.8,30.03,SW,236,0.0,1.0,88,0.00,,CLR,0.08,VWS V14.01,2013-03-15 01:40:00,
2013-03-14 20:45:00,27.9,24.8,30.03,SW,236,1.0,1.0,88,0.00,,CLR,0.08,VWS V14.01,2013-03-15 01:45:00,
2013-03-14 20:55:00,28.4,25.3,30.03,WSW,257,1.0,1.0,88,0.00,,,0.08,VWS V14.01,2013-03-15 01:55:00,
2013-03-14 21:00:00,28.6,25.2,30.02,West,271,1.0,1.0,87,0.00,,,0.08,VWS V14.01,2013-03-15 02:00:00,
2013-03-14 21:05:00,28.8,25.4,30.02,WSW,252,1.0,2.0,87,0.00,,,0.08,VWS V14.01,2013-03-15 02:05:00,
2013-03-14 21:10:00,29.0,25.6,30.02,West,276,1.0,2.0,87,0.00,,,0.08,VWS V14.01,2013-03-15 02:10:00,
2013-03-14 21:15:00,29.3,25.9,30.02,West,279,1.0,1.0,87,0.00,,,0.08,VWS V14.01,2013-03-15 02:15:00,
2013-03-14 21:20:00,29.5,25.8,30.01,West,273,1.0,2.0,86,0.00,,,0.08,VWS V14.01,2013-03-15 02:20:00,
2013-03-14 21:25:00,29.4,25.7,30.01,West,266,0.0,1.0,86,0.00,,,0.08,VWS V14.01,2013-03-15 02:25:00,
2013-03-14 21:30:00,29.4,26.0,30.01,West,273,2.0,2.0,87,0.00,,,0.08,VWS V14.01,2013-03-15 02:30:00,
2013-03-14 21:35:00,29.5,26.1,30.01,West,271,2.0,2.0,87,0.00,,,0.08,VWS V14.01,2013-03-15 02:35:00,
2013-03-14 21:40:00,29.5,26.1,30.01,West,274,1.0,2.0,87,0.00,,,0.08,VWS V14.01,2013-03-15 02:40:00,
2013-03-14 21:46:00,29.5,25.8,30.00,West,271,0.0,1.0,86,0.00,,,0.08,VWS V14.01,2013-03-15 02:46:00,
2013-03-14 21:52:00,29.2,25.5,30.00,West,271,0.0,0.0,86,0.00,,,0.08,VWS V14.01,2013-03-15 02:52:00,
2013-03-14 21:58:00,28.6,24.7,30.00,West,271,0.0,0.0,85,0.00,,,0.08,VWS V14.01,2013-03-15 02:58:00,
2013-03-14 22:04:00,28.4,25.0,29.99,West,271,0.0,0.0,87,0.00,,,0.08,VWS V14.01,2013-03-15 03:04:00,
2013-03-14 22:10:00,28.2,25.1,29.99,West,271,0.0,0.0,88,0.00,,,0.08,VWS V14.01,2013-03-15 03:10:00,
2013-03-14 22:15:00,28.2,25.4,29.99,WSW,248,0.0,1.0,89,0.00,,,0.08,VWS V14.01,2013-03-15 03:15:00,
2013-03-14 22:20:00,28.4,25.6,29.99,West,266,1.0,1.0,89,0.00,,,0.08,VWS V14.01,2013-03-15 03:20:00,
2013-03-14 22:25:00,28.6,25.8,29.99,West,270,1.0,1.0,89,0.00,,,0.08,VWS V14.01,2013-03-15 03:25:00,
2013-03-14 22:30:00,28.7,25.9,29.99,West,276,0.0,1.0,89,0.00,,,0.08,VWS V14.01,2013-03-15 03:30:00,
2013-03-14 22:35:00,28.7,25.6,29.99,West,273,0.0,2.0,88,0.00,,,0.08,VWS V14.01,2013-03-15 03:35:00,
2013-03-14 22:40:00,28.5,25.4,29.99,West,267,0.0,1.0,88,0.00,,,0.08,VWS V14.01,2013-03-15 03:40:00,
2013-03-14 22:45:00,28.1,24.7,29.99,West,267,0.0,0.0,87,0.00,,,0.08,VWS V14.01,2013-03-15 03:45:00,
2013-03-14 22:50:00,27.6,24.2,29.99,West,267,0.0,0.0,87,0.00,,,0.08,VWS V14.01,2013-03-15 03:50:00,
2013-03-14 22:55:00,27.0,23.6,29.99,West,267,0.0,0.0,87,0.00,,,0.08,VWS V14.01,2013-03-15 03:55:00,
2013-03-14 23:00:00,26.4,23.1,29.99,West,266,0.0,0.0,87,0.00,,,0.08,VWS V14.01,2013-03-15 04:00:00,
2013-03-14 23:05:00,25.7,22.4,29.99,West,267,0.0,0.0,87,0.00,,,0.08,VWS V14.01,2013-03-15 04:05:00,
2013-03-14 23:08:00,25.6,22.5,29.99,West,273,2.0,3.0,88,0.00,,,0.08,VWS V14.01,2013-03-15 04:08:00,
2013-03-14 23:14:00,26.6,24.3,30.00,West,276,0.0,3.0,91,0.00,,,0.08,VWS V14.01,2013-03-15 04:14:00,
2013-03-14 23:20:00,26.7,24.4,30.00,West,271,1.0,2.0,91,0.00,,,0.08,VWS V14.01,2013-03-15 04:20:00,
2013-03-14 23:25:00,26.8,24.3,30.00,West,269,2.0,2.0,90,0.00,,,0.08,VWS V14.01,2013-03-15 04:25:00,
2013-03-14 23:30:00,26.1,23.0,30.00,West,263,1.0,2.0,88,0.00,,,0.08,VWS V14.01,2013-03-15 04:30:00,
2013-03-14 23:35:00,25.7,22.9,30.00,West,277,0.0,2.0,89,0.00,,,0.08,VWS V14.01,2013-03-15 04:35:00,
2013-03-14 23:40:00,25.4,22.9,30.00,West,271,0.0,1.0,90,0.00,,,0.08,VWS V14.01,2013-03-15 04:40:00,
2013-03-14 23:45:00,25.1,22.6,29.99,West,263,0.0,1.0,90,0.00,,,0.08,VWS V14.01,2013-03-15 04:45:00,
2013-03-14 23:51:00,24.9,22.4,29.99,West,263,0.0,1.0,90,0.00,,,0.08,VWS V14.01,2013-03-15 04:51:00,